CZ-4B DEB (46482 NORAD) Tracking and Keplerian Element Data

This shows tracking and keplerian element data for the satellite.

Feedback or suggestion? Click here.




ElementValue
Catalog46482
NameCZ-4B DEB
Epoch Orbit439
Epoch Day300.79629745
Epoch Year2020
RAAN16.2262
Inclination98.0596
Eccentricity0.0143119
Argument of Perigee243.8494
Mean Anonmoly114.7944
Mean Motion14.90608739
Decay Rate0.00545845
L11 46482U 20067E 20300.79629745 .00545845 00000-0 43435-1 0 9994
L22 46482 98.0596 16.2262 0143119 243.8494 114.7944 14.90608739 4398

Live tracking and technical data element details for CZ-4B DEB (NORAD 46482). CZ-4B DEB can be tracked NOW for your location showing map with azimuth and elevation plus other details from your city location.

Track the satellite on the map from your city or location and see movement details for azimuth, elevation, latitude, longitude, range, height, and movement on the map or in text.







IsCatalogInMostPopularTable: catalog: 46482, numindb: 24
Update: records affected: 1



GetName: 46482 CZ-4B DEB

Hit Count: updated at: Wed, 02 Dec 2020 06:05:00 GMT